#timestamp,LO_Frequency,Hit,StdDev 
1649901615.9,286047000.0,N
1649901635.7,286047000.7,N
1649901655.6,286046997.0,N
1649901675.4,286046999.0,N
1649901695.2,286047002.4,N
1649901715.1,286047000.3,N
1649901716.0,286047000.3,N
1649901735.8,286046996.5,Y
1649901755.7,286047000.1,P
1649901775.5,286046998.1,P
1649901795.3,286047001.0,N
1649901815.2,286046999.4,N
1649901835.0,286046998.2,N
1649901835.9,286046998.2,N
1649901855.8,286046999.0,N
1649901875.6,286046999.3,N
1649901895.4,286046996.9,Y
1649901915.3,286047002.8,P
1649901935.1,286047000.4,N
1649901955.9,286046998.2,N
1649901975.7,286046998.4,N
1649901995.5,286046999.0,N
1649902015.4,286046999.0,N
1649902035.2,286046996.5,N
1649902055.0,286046999.0,N
1649902055.9,286046999.0,N
1649902075.8,286047001.2,N
1649902095.6,286046998.1,N
1649902115.4,286046999.5,N
1649902135.3,286046998.8,N
1649902155.1,286046998.9,N
1649902175.9,286046996.5,N
1649902195.7,286046998.8,N
1649902215.5,286046996.8,N
1649902235.4,286046995.9,N
1649902255.2,286046995.4,N
1649902275.0,286046998.0,N
1649902275.9,286046998.0,N
1649902295.8,286046995.0,Y
1649902315.6,286046997.9,P
1649902335.5,286046997.1,P
1649902355.3,286046997.6,P
1649902375.1,286046995.3,Y
1649902395.9,286046998.1,P
1649902415.7,286047000.7,P
1649902435.5,286047000.6,N
1649902455.4,286047000.1,N
1649902475.2,286047002.5,N
1649902495.1,286047000.5,N
1649902496.0,286047000.5,N
1649902515.8,286047002.8,N
1649902535.6,286046999.9,N
1649902555.5,286047001.1,N
1649902575.3,286047000.9,N
1649902595.1,286047000.4,N
1649902615.9,286047000.4,N
1649902635.7,286047000.9,N
1649902655.6,286046999.7,N
1649902675.4,286047000.7,N
1649902695.2,286047000.2,N
1649902715.1,286047002.7,N
1649902716.0,286047002.7,N
1649902735.8,286047000.2,N
1649902755.6,286047002.5,N
1649902775.5,286047002.5,N
1649902795.3,286047002.7,N
1649902815.2,286047002.4,N
1649902835.9,286047002.3,N
1649902855.7,286047002.2,N
1649902875.6,286047001.9,N
1649902895.4,286047002.7,N
1649902915.2,286047004.2,Y
1649902935.1,286047002.5,P
1649902936.0,286047002.5,P
1649902955.8,286046999.7,N
1649902975.7,286046998.5,N
1649902995.5,286047001.0,N
1649903015.3,286046999.8,N
1649903035.2,286047000.0,N
1649903055.0,286047000.1,N
1649903055.9,286047000.1,N
1649903075.7,286046999.8,N
1649903095.6,286046998.6,N
1649903115.4,286046999.3,N
1649903135.3,286046998.3,N
1649903155.1,286046998.8,N
1649903156.0,286046998.8,N
1649903175.8,286046998.1,N
1649903195.7,286047000.1,N
1649903215.5,286047003.0,N
1649903235.3,286047005.0,Y
1649903255.2,286047004.5,P
1649903275.0,286047005.9,N
1649903275.9,286047005.9,N
1649903295.8,286047003.1,N
1649903315.6,286047003.8,N
1649903335.4,286047003.3,N
1649903355.3,286047003.8,N
1649903375.1,286047004.1,N
1649903395.9,286047004.0,N
1649903415.7,286047003.3,N
1649903435.5,286047005.5,Y
1649903455.4,286047002.0,P
1649903475.2,286047003.2,P
1649903495.0,286047004.0,P
1649903496.0,286047004.0,Y
1649903515.8,286047000.8,P
1649903535.6,286047000.7,N
1649903555.5,286046999.1,N
1649903575.3,286046996.5,N
1649903595.1,286046997.1,N
1649903615.9,286046996.9,N
1649903635.7,286046994.9,N
1649903655.6,286046995.6,N
1649903675.4,286046995.1,N
1649903695.2,286046998.0,N
1649903715.1,286046997.1,N
1649903716.0,286046997.1,N
1649903735.8,286046997.0,N
1649903755.7,286046996.5,N
1649903775.5,286046995.7,N
1649903795.3,286046995.5,N
1649903815.2,286046994.9,N
1649903835.0,286046998.0,N
1649903835.9,286046998.0,N
1649903855.7,286046994.9,N
1649903875.6,286046997.6,N
1649903895.4,286046995.0,N
1649903915.3,286046997.8,N
1649903935.1,286046993.4,Y
1649903955.8,286046997.7,P
1649903975.7,286046995.4,P
1649903995.5,286046994.9,P
1649904015.4,286046995.1,Y
1649904035.2,286047001.0,P
1649904055.0,286046998.3,N
1649904055.9,286046998.3,N
1649904075.8,286046998.2,N
1649904095.6,286046999.0,N
1649904115.4,286046998.4,N
1649904135.3,286046999.1,N
1649904155.1,286046999.1,N
1649904175.9,286046998.3,N
1649904195.7,286046999.3,N
1649904215.5,286046999.0,N
1649904235.4,286046999.6,N
1649904255.2,286046998.8,N
1649904275.0,286046999.3,N
1649904275.9,286046999.3,N
1649904295.8,286046999.2,N
1649904315.6,286046999.0,N
1649904335.5,286046998.8,N
1649904355.3,286046998.9,N
1649904375.1,286047002.1,N
1649904395.9,286047001.6,N
1649904415.7,286047000.1,N
1649904435.5,286047002.2,N
1649904455.4,286047001.4,N
1649904475.2,286046999.7,N
1649904495.1,286047001.0,N
1649904496.0,286047001.0,N
1649904515.8,286047000.5,N
1649904535.6,286047001.1,N
1649904555.5,286047002.7,N
1649904575.3,286047004.0,Y
1649904595.2,286047001.8,P
1649904615.9,286047005.9,P
1649904635.7,286047005.3,N
1649904655.6,286047003.0,N
1649904675.4,286047001.7,N
1649904695.2,286047000.2,N
1649904715.1,286047000.7,N
1649904716.0,286047000.7,N
1649904735.8,286047000.9,N
1649904755.7,286047000.7,N
1649904775.5,286046998.2,N
1649904795.3,286046998.8,N
1649904815.2,286046999.4,N
1649904835.9,286046998.6,N
1649904855.7,286047000.6,N
1649904875.6,286047000.6,N
1649904895.4,286046998.3,N
1649904915.2,286047001.2,N
1649904935.1,286046999.0,N
1649904936.0,286046999.0,N
1649904955.8,286046999.3,N
1649904975.7,286047011.9,Y
1649904995.5,286046998.9,P
1649905015.3,286046998.4,N
1649905035.2,286046999.1,N
1649905055.0,286046999.5,N
1649905055.9,286046999.5,N
1649905075.8,286046998.4,N
1649905095.6,286046998.6,N
1649905115.4,286046998.6,N
1649905135.3,286046999.4,N
1649905155.1,286046997.3,Y
1649905175.8,286046997.3,P
1649905195.7,286046997.8,N
